Weather History for South Haven, MI

Change the Weather History Date:

Friday, October 25, 2013

  Actual Average (KBIV) Record (KBIV)
Temperature  
Mean Temperature 39 °F 50 °F  
Max Temperature 46 °F 58 °F 80 °F (2012)
Min Temperature 32 °F 41 °F 21 °F (1960)
Degree Days  
Heating Degree Days 26 15  
Month to date heating degree days 295  
Since 1 July heating degree days 425  
Cooling Degree Days 0 0  
Month to date cooling degree days 10  
Year to date cooling degree days 692  
Moisture  
Dew Point 31 °F    
Average Humidity 74    
Maximum Humidity 99    
Minimum Humidity 47    
Precipitation  
Precipitation 0.00 in 0.13 in 0.64 in (1967)
Month to date precipitation 2.86  
Year to date precipitation 29.97  
Sea Level Pressure  
Sea Level Pressure 30.25 in    
Wind  
Wind Speed 6 mph (SW)    
Max Wind Speed 16 mph    
Max Gust Speed 24 mph    
Visibility 9 miles    
Events Snow    
T = Trace of Precipitation, MM = Missing Value Source: NWS Daily Summary

Daily Weather History Graph

Daily Weather History Graph

Search for Another Location

Airport:

Trip Planner

Search our weather history database for the weather conditions in past years. The results will help you decide how hot, cold, wet, or windy it might be!

Date:

Astronomy

Oct. 25, 2013 Rise Set
Actual Time 8:10 AM EDT 6:47 PM EDT
Civil Twilight 7:41 AM EDT 7:16 PM EDT
Nautical Twilight 7:08 AM EDT 7:49 PM EDT
Astronomical Twilight 6:35 AM EDT 8:21 PM EDT
Moon No Moon Rise 1:52 PM EDT (10/25)
Length of Visible Light 11h 34m
Length of Day
10h 37m
Waning Gibbous, 62% of the Moon is Illuminated
Oct 25
Waning Gibbous
Oct 26
Last Quarter
Nov 3
New
Nov 10
First Quarter
Nov 17
Full

Hourly Weather History & Observations

Time (EDT) Temp. Windchill Dew Point Humidity Pressure Visibility Wind Dir Wind Speed Gust Speed Precip Events Conditions
12:15 AM 33.4 °F 26.6 °F 32.9 °F 98% 30.22 in 10.0 mi ESE 8.1 mph - N/A   Overcast
12:35 AM 33.4 °F 26.6 °F 32.9 °F 98% 30.22 in 10.0 mi East 8.1 mph - N/A   Overcast
12:55 AM 33.3 °F 26.4 °F 32.5 °F 97% 30.23 in 10.0 mi East 8.1 mph - N/A   Overcast
1:15 AM 33.3 °F 28.9 °F 32.9 °F 99% 30.24 in 10.0 mi ENE 4.6 mph - N/A   Overcast
1:35 AM 33.1 °F 28.7 °F 32.5 °F 98% 30.24 in 1.8 mi South 4.6 mph - N/A Snow Light Snow
1:55 AM 33.1 °F 28.7 °F 32.4 °F 97% 30.24 in 3.0 mi ESE 4.6 mph - N/A Snow Light Snow
2:15 AM 33.1 °F 27.7 °F 32.5 °F 98% 30.24 in 2.0 mi East 5.8 mph - N/A Snow Light Snow
2:35 AM 32.9 °F 26.7 °F 32.2 °F 97% 30.25 in 2.5 mi East 6.9 mph - N/A Snow Light Snow
2:55 AM 33.1 °F 30.0 °F 32.9 °F 99% 30.25 in 2.5 mi East 3.5 mph - N/A Snow Light Snow
3:15 AM 33.3 °F - 32.9 °F 99% 30.26 in 7.0 mi Calm Calm - N/A   Overcast
3:34 AM 32.9 °F 28.5 °F 32.4 °F 98% 30.27 in 7.0 mi ESE 4.6 mph - N/A Snow Light Snow
3:55 AM 33.3 °F 30.2 °F 32.9 °F 99% 30.27 in 7.0 mi SE 3.5 mph - N/A   Overcast
4:15 AM 33.8 °F - 33.3 °F 98% 30.27 in 10.0 mi Calm Calm - N/A   Overcast
4:34 AM 33.8 °F - 33.3 °F 98% 30.27 in 10.0 mi Calm Calm - N/A   Overcast
4:55 AM 34.0 °F 31.0 °F 33.4 °F 98% 30.28 in 10.0 mi South 3.5 mph - N/A   Overcast
5:15 AM 34.2 °F - 33.8 °F 99% 30.28 in 10.0 mi Calm Calm - N/A   Overcast
5:34 AM 34.2 °F - 33.8 °F 99% 30.29 in 10.0 mi Calm Calm - N/A   Overcast
5:55 AM 34.0 °F 29.8 °F 33.6 °F 99% 30.30 in 10.0 mi South 4.6 mph - N/A   Overcast
6:15 AM 34.3 °F - 33.8 °F 98% 30.30 in 10.0 mi Calm Calm - N/A Snow Light Snow
6:34 AM 34.2 °F - 33.8 °F 99% 30.30 in 10.0 mi Calm Calm - N/A   Overcast
6:55 AM 34.3 °F - 33.8 °F 98% 30.31 in 10.0 mi Calm Calm - N/A   Overcast
7:15 AM 34.3 °F 30.2 °F 33.8 °F 98% 30.31 in 10.0 mi South 4.6 mph - N/A   Overcast
7:35 AM 34.7 °F - 33.8 °F 97% 30.32 in 10.0 mi Calm Calm - N/A   Overcast
7:55 AM 34.7 °F 30.6 °F 34.0 °F 97% 30.32 in 10.0 mi South 4.6 mph - N/A   Overcast
8:15 AM 35.1 °F - 34.2 °F 97% 30.32 in 10.0 mi Calm Calm - N/A Snow Light Snow
8:35 AM 35.2 °F - 34.2 °F 96% 30.32 in 10.0 mi Calm Calm - N/A   Overcast
8:55 AM 35.6 °F - 34.3 °F 95% 30.32 in 10.0 mi Calm Calm - N/A   Overcast
9:15 AM 35.8 °F 31.9 °F 34.7 °F 96% 30.33 in 10.0 mi South 4.6 mph - N/A   Overcast
9:35 AM 36.0 °F - 34.9 °F 96% 30.34 in 10.0 mi Calm Calm - N/A   Overcast
9:55 AM 36.5 °F - 35.6 °F 97% 30.34 in 10.0 mi Calm Calm - N/A   Mostly Cloudy
10:15 AM 37.6 °F - 36.0 °F 94% 30.35 in 10.0 mi Calm Calm - N/A   Mostly Cloudy
10:35 AM 40.8 °F 36.2 °F 33.3 °F 74% 30.35 in 10.0 mi WNW 6.9 mph - N/A   Overcast
10:55 AM 44.1 °F 39.0 °F 32.5 °F 64% 30.34 in 10.0 mi WNW 9.2 mph - N/A   Scattered Clouds
11:15 AM 43.3 °F 38.6 °F 31.1 °F 62% 30.35 in 10.0 mi West 8.1 mph 17.3 mph N/A   Mostly Cloudy
11:35 AM 43.9 °F 38.3 °F 30.4 °F 59% 30.34 in 10.0 mi West 10.4 mph - N/A   Mostly Cloudy
11:55 AM 44.1 °F 38.6 °F 30.2 °F 58% 30.35 in 10.0 mi West 10.4 mph 19.6 mph N/A   Overcast
12:15 PM 44.6 °F 39.2 °F 30.2 °F 57% 30.34 in 10.0 mi West 10.4 mph 17.3 mph N/A   Overcast
12:35 PM 43.9 °F 39.3 °F 29.5 °F 57% 30.34 in 10.0 mi West 8.1 mph 18.4 mph N/A   Overcast
12:54 PM 44.2 °F 38.0 °F 27.7 °F 52% 30.34 in 10.0 mi West 12.7 mph 16.1 mph N/A   Mostly Cloudy
1:15 PM 44.4 °F 39.0 °F 29.7 °F 56% 30.33 in 10.0 mi West 10.4 mph - N/A   Overcast
1:35 PM 44.1 °F 38.6 °F 29.1 °F 56% 30.32 in 10.0 mi West 10.4 mph - N/A   Overcast
1:54 PM 43.7 °F 37.3 °F 28.9 °F 56% 30.31 in 10.0 mi WSW 12.7 mph 17.3 mph N/A   Overcast
2:15 PM 43.9 °F 37.5 °F 29.1 °F 56% 30.30 in 10.0 mi West 12.7 mph 19.6 mph N/A   Overcast
2:35 PM 45.3 °F 39.7 °F 27.9 °F 51% 30.30 in 10.0 mi WSW 11.5 mph 19.6 mph N/A   Mostly Cloudy
2:54 PM 45.7 °F 41.5 °F 26.6 °F 47% 30.29 in 10.0 mi West 8.1 mph 17.3 mph N/A   Scattered Clouds
3:15 PM 45.5 °F 39.2 °F 27.3 °F 49% 30.28 in 10.0 mi West 13.8 mph 17.3 mph N/A   Mostly Cloudy
3:35 PM 46.0 °F 41.0 °F 29.1 °F 52% 30.27 in 10.0 mi West 10.4 mph 18.4 mph N/A   Mostly Cloudy
3:55 PM 45.7 °F 40.6 °F 28.4 °F 51% 30.27 in 10.0 mi WSW 10.4 mph 17.3 mph N/A   Mostly Cloudy
4:15 PM 45.5 °F 39.9 °F 28.9 °F 52% 30.26 in 10.0 mi WSW 11.5 mph - N/A   Overcast
4:35 PM 45.5 °F 40.3 °F 29.1 °F 53% 30.25 in 10.0 mi WSW 10.4 mph 18.4 mph N/A   Overcast
4:55 PM 46.0 °F 41.4 °F 29.3 °F 52% 30.24 in 10.0 mi SW 9.2 mph 24.2 mph N/A   Mostly Cloudy
5:15 PM 45.7 °F 40.2 °F 30.2 °F 55% 30.23 in 10.0 mi SW 11.5 mph 18.4 mph N/A   Mostly Cloudy
5:35 PM 45.7 °F 42.0 °F 30.2 °F 55% 30.22 in 10.0 mi WSW 6.9 mph 18.4 mph N/A   Mostly Cloudy
5:55 PM 45.7 °F 40.6 °F 29.7 °F 54% 30.21 in 10.0 mi WSW 10.4 mph 17.3 mph N/A   Mostly Cloudy
6:15 PM 45.9 °F 40.8 °F 30.0 °F 54% 30.20 in 10.0 mi SW 10.4 mph 17.3 mph N/A   Mostly Cloudy
6:35 PM 46.4 °F 41.9 °F 29.8 °F 53% 30.19 in 10.0 mi SW 9.2 mph 20.7 mph N/A   Mostly Cloudy
6:55 PM 46.0 °F 41.4 °F 30.0 °F 54% 30.17 in 10.0 mi SW 9.2 mph 18.4 mph N/A   Mostly Cloudy
7:15 PM 46.4 °F 41.1 °F 29.1 °F 51% 30.17 in 10.0 mi SW 11.5 mph 18.4 mph N/A   Mostly Cloudy
7:35 PM 43.7 °F 39.1 °F 30.9 °F 61% 30.16 in 10.0 mi South 8.1 mph - N/A   Mostly Cloudy
7:55 PM 42.4 °F 37.5 °F 30.4 °F 62% 30.15 in 10.0 mi South 8.1 mph - N/A   Mostly Cloudy
8:15 PM 42.8 °F 38.0 °F 29.3 °F 59% 30.14 in 10.0 mi SSW 8.1 mph - N/A   Mostly Cloudy
8:35 PM 43.2 °F 37.9 °F 28.4 °F 56% 30.13 in 10.0 mi SSW 9.2 mph - N/A   Scattered Clouds
8:55 PM 43.0 °F 36.4 °F 28.4 °F 56% 30.12 in 10.0 mi SSW 12.7 mph - N/A   Mostly Cloudy
9:15 PM 43.7 °F 37.3 °F 28.6 °F 55% 30.10 in 10.0 mi SSW 12.7 mph 20.7 mph N/A   Mostly Cloudy
9:35 PM 43.7 °F 37.7 °F 28.9 °F 56% 30.09 in 10.0 mi SSW 11.5 mph 18.4 mph N/A   Scattered Clouds
9:55 PM 44.1 °F 37.7 °F 29.1 °F 56% 30.09 in 10.0 mi SSW 12.7 mph 20.7 mph N/A   Scattered Clouds
10:15 PM 44.2 °F 37.0 °F 28.9 °F 55% 30.08 in 10.0 mi SSW 16.1 mph 20.7 mph N/A   Scattered Clouds
10:35 PM 43.9 °F 37.2 °F 28.8 °F 55% 30.07 in 10.0 mi SSW 13.8 mph 21.9 mph N/A   Clear
10:55 PM 43.3 °F 37.2 °F 28.9 °F 57% 30.07 in 10.0 mi SSW 11.5 mph 20.7 mph N/A   Scattered Clouds
11:15 PM 43.2 °F 37.0 °F 28.9 °F 57% 30.07 in 10.0 mi SSW 11.5 mph 17.3 mph N/A   Mostly Cloudy
11:35 PM 43.2 °F 36.6 °F 29.5 °F 59% 30.06 in 10.0 mi SSW 12.7 mph 19.6 mph N/A   Overcast
11:55 PM 44.2 °F 38.0 °F 30.6 °F 59% 30.05 in 10.0 mi SSW 12.7 mph 21.9 mph N/A   Overcast